Tenerife, Spain

3:42 AM WEST on October 19, 2018 (GMT +0100)
Tenerife

Weather History for GCXO - April, 2018

Change the Weather History Date:

Monday, April 16, 2018

  Actual Average Record
Temperature  
Mean Temperature 58 °F -  
Max Temperature 66 °F 64 °F 88 °F (2017)
Min Temperature 49 °F 51 °F 49 °F (2018)
Degree Days  
Heating Degree Days 8    
Growing Degree Days 8 (Base 50)    
Moisture  
Dew Point 54 °F    
Average Humidity 87    
Maximum Humidity 100    
Minimum Humidity 69    
Precipitation  
Precipitation 0.00 in - - ()
Sea Level Pressure  
Sea Level Pressure 30.15 in    
Wind  
Wind Speed 6 mph ()    
Max Wind Speed 10 mph    
Max Gust Speed -    
Visibility 7.0 miles    
Events Fog , Rain    
Averages and records for this station are not official NWS values.
T = Trace of Precipitation, MM = Missing Value Source: Averaged Metar Reports

Daily Weather History Graph

Daily Weather History Graph

Search for Another Location

Airport or City:

Astronomy

Apr. 16, 2018 Rise Set
Actual Time 7:39 AM WEST 8:31 PM WEST
Civil Twilight 7:14 AM WEST 8:55 PM WEST
Nautical Twilight 6:46 AM WEST 9:24 PM WEST
Astronomical Twilight 6:17 AM WEST 9:53 PM WEST
Moon 8:09 AM WEST (4/16) 9:08 PM WEST (4/16)
Length of Visible Light 13h 40m
Length of Day
12h 52m
New Moon, 0% of the Moon is Illuminated
Apr 16
New Moon
Apr 22
First Quarter
Apr 30
Full
May 8
Last Quarter
May 15
New

Hourly Weather History & Observations

Time (WEST) Temp. Dew Point Humidity Pressure Visibility Wind Dir Wind Speed Gust Speed Precip Events Conditions
12:00 AM 55.4 °F 53.6 °F 94% 30.24 in 6.2 mi West 8.1 mph - N/A   Scattered Clouds
12:30 AM 55.4 °F 53.6 °F 94% 30.21 in 6.2 mi WNW 6.9 mph - N/A   Scattered Clouds
1:00 AM 54 °F 53 °F 95% 30.22 in 19 mi WNW 9.2 mph - -  
1:00 AM 55.4 °F 53.6 °F 94% 30.21 in 6.2 mi NW 8.1 mph - N/A   Scattered Clouds
1:30 AM 55.4 °F 55.4 °F 100% 30.21 in 6.2 mi NW 10.4 mph - N/A   Mostly Cloudy
2:00 AM 55.4 °F 55.4 °F 100% 30.21 in 6.2 mi NW 6.9 mph - N/A   Overcast
2:30 AM 53.6 °F 53.6 °F 100% 30.18 in 6.2 mi NW 5.8 mph - N/A   Scattered Clouds
3:00 AM 53.6 °F 53.6 °F 100% 30.18 in 6.2 mi West 6.9 mph - N/A   Scattered Clouds
3:30 AM 53.6 °F 53.6 °F 100% 30.18 in 6.2 mi West 6.9 mph - N/A   Unknown
4:00 AM 53.6 °F 53.6 °F 100% 30.15 in 6.2 mi West 5.8 mph - N/A   Unknown
4:30 AM 53.6 °F 51.8 °F 94% 30.15 in 6.2 mi WSW 4.6 mph - N/A Rain Light Rain
5:00 AM 53.6 °F 51.8 °F 94% 30.15 in 6.2 mi West 5.8 mph - N/A   Unknown
5:30 AM 53.6 °F 50.0 °F 88% 30.15 in 6.2 mi Variable 2.3 mph - N/A   Unknown
6:00 AM 51.8 °F 48.2 °F 88% 30.12 in 6.2 mi ESE 3.5 mph - N/A   Partly Cloudy
6:30 AM 50.0 °F 48.2 °F 94% 30.15 in - Variable 1.2 mph - N/A   Clear
7:00 AM 52 °F 49 °F 88% 30.15 in 19 mi SSE 4.6 mph - -   Scattered Clouds
7:00 AM 53.6 °F 50.0 °F 88% 30.15 in 6.2 mi SSE 3.5 mph - N/A   Partly Cloudy
7:30 AM 51.8 °F 50.0 °F 94% 30.15 in 6.2 mi South 4.6 mph - N/A   Partly Cloudy
8:30 AM 53.6 °F 50.0 °F 88% 30.15 in 6.2 mi Variable 1.2 mph - N/A   Partly Cloudy
9:00 AM 57.2 °F 53.6 °F 88% 30.15 in 6.2 mi WNW 3.5 mph - N/A   Partly Cloudy
9:30 AM 59.0 °F 53.6 °F 82% 30.15 in 6.2 mi Variable 2.3 mph - N/A   Partly Cloudy
10:00 AM 60.8 °F 51.8 °F 72% 30.15 in 6.2 mi Variable 1.2 mph - N/A   Partly Cloudy
11:00 AM 59.0 °F 53.6 °F 82% 30.18 in 6.2 mi East 5.8 mph - N/A   Scattered Clouds
11:30 AM 60.8 °F 53.6 °F 77% 30.18 in 6.2 mi SE 4.6 mph - N/A   Scattered Clouds
12:00 PM 62.6 °F 55.4 °F 77% 30.18 in 6.2 mi SE 4.6 mph - N/A   Scattered Clouds
12:30 PM 62.6 °F 55.4 °F 77% 30.18 in 6.2 mi ESE 8.1 mph - N/A   Mostly Cloudy
1:00 PM 62.6 °F 55.4 °F 77% 30.18 in 6.2 mi ESE 6.9 mph - N/A   Mostly Cloudy
1:30 PM 62.6 °F 55.4 °F 77% 30.18 in 6.2 mi ESE 6.9 mph - N/A   Scattered Clouds
2:30 PM 62.6 °F 55.4 °F 77% 30.15 in 6.2 mi Variable 8.1 mph - N/A   Scattered Clouds
3:00 PM 64.4 °F 57.2 °F 77% 30.15 in 6.2 mi ESE 6.9 mph - N/A   Scattered Clouds
3:30 PM 64.4 °F 57.2 °F 77% 30.12 in 6.2 mi Variable 5.8 mph - N/A   Partly Cloudy
4:00 PM 65 °F 57 °F 69% 30.07 in 16 mi ESE 6.9 mph - -   Scattered Clouds
4:00 PM 66.2 °F 57.2 °F 73% 30.12 in 6.2 mi ESE 4.6 mph - N/A   Partly Cloudy
4:30 PM 62.6 °F 55.4 °F 77% 30.12 in 6.2 mi ESE 9.2 mph - N/A   Partly Cloudy
5:00 PM 66.2 °F 59.0 °F 78% 30.12 in 6.2 mi ESE 6.9 mph - N/A   Partly Cloudy
5:30 PM 66.2 °F 59.0 °F 78% 30.12 in 6.2 mi ESE 5.8 mph - N/A   Partly Cloudy
6:00 PM 66.2 °F 57.2 °F 73% 30.12 in 6.2 mi Variable 3.5 mph - N/A   Partly Cloudy
6:30 PM 64.4 °F 55.4 °F 73% 30.12 in 6.2 mi WNW 6.9 mph - N/A   Partly Cloudy
7:00 PM 64.4 °F 55.4 °F 73% 30.12 in 6.2 mi WNW 8.1 mph - N/A   Partly Cloudy
7:30 PM 62.6 °F 55.4 °F 77% 30.12 in - WNW 8.1 mph - N/A   Clear
8:00 PM 60.8 °F 55.4 °F 82% 30.12 in - West 6.9 mph - N/A   Clear
8:30 PM 57.2 °F 53.6 °F 88% 30.12 in - West 6.9 mph - N/A   Clear
9:00 PM 55.4 °F 53.6 °F 94% 30.12 in 6.2 mi West 8.1 mph - N/A   Partly Cloudy
10:00 PM 55 °F 53 °F 92% 30.13 in 7 mi WSW 9.2 mph - -  
10:00 PM 55.4 °F 53.6 °F 94% 30.12 in 4.3 mi West 8.1 mph - N/A Fog Patches of Fog
10:22 PM 55.4 °F 53.6 °F 94% 30.15 in - West 8.1 mph - N/A   Clear
10:30 PM 55.4 °F 53.6 °F 94% 30.15 in - West 8.1 mph - N/A   Clear
11:00 PM 53.6 °F 53.6 °F 100% 30.15 in 6.2 mi West 10.4 mph - N/A   Partly Cloudy
11:30 PM 53.6 °F 53.6 °F 100% 30.15 in 5.0 mi West 10.4 mph - N/A   Scattered Clouds